This is the latest recevied weather packets stored in our database for station/object DL5TW-13. If no packets are shown the sender has not sent any weather packets the latest 10 day(s).
| Time | Temp. | Humidity | Pressure | Rain* | Wind** | Luminosity | Snow |
|---|---|---|---|---|---|---|---|
| 1777822643 | 25.56° C | 27% | 1007.3 hPa | 0 mm | - | - | - |
| 1777822343 | 26.11° C | 27% | 1007.4 hPa | 0 mm | - | - | - |
| 1777822043 | 26.67° C | 27% | 1007.4 hPa | 0 mm | - | - | - |
| 1777821743 | 27.22° C | 26% | 1007.6 hPa | 0 mm | - | - | - |
| 1777821442 | 27.78° C | 25% | 1007.5 hPa | 0 mm | - | - | - |
| 1777821142 | 28.89° C | 25% | 1007.5 hPa | 0 mm | - | - | - |
| 1777820842 | 28.89° C | 25% | 1007.5 hPa | 0 mm | - | - | - |
| 1777820541 | 28.89° C | 25% | 1007.5 hPa | 0 mm | - | - | - |
| 1777820241 | 28.89° C | 25% | 1007.6 hPa | 0 mm | - | - | - |
| 1777819941 | 28.89° C | 25% | 1007.7 hPa | 0 mm | - | - | - |
| 1777819641 | 29.44° C | 25% | 1007.8 hPa | 0 mm | - | - | - |
| 1777819340 | 29.44° C | 25% | 1007.6 hPa | 0 mm | - | - | - |
| 1777819040 | 29.44° C | 24% | 1007.7 hPa | 0 mm | - | - | - |
| 1777818740 | 28.89° C | 25% | 1007.6 hPa | 0 mm | - | - | - |
| 1777818439 | 28.89° C | 25% | 1007.8 hPa | 0 mm | - | - | - |
| 1777818139 | 28.89° C | 25% | 1007.8 hPa | 0 mm | - | - | - |
| 1777817839 | 28.33° C | 24% | 1007.7 hPa | 0 mm | - | - | - |
| 1777817539 | 28.33° C | 23% | 1007.9 hPa | 0 mm | - | - | - |
| 1777817238 | 28.89° C | 24% | 1007.9 hPa | 0 mm | - | - | - |
| 1777816938 | 28.89° C | 23% | 1007.9 hPa | 0 mm | - | - | - |
| 1777816638 | 30° C | 23% | 1007.8 hPa | 0 mm | - | - | - |
| 1777816337 | 30° C | 23% | 1007.8 hPa | 0 mm | - | - | - |
| 1777816037 | 28.89° C | 25% | 1007.9 hPa | 0 mm | - | - | - |
| 1777815737 | 28.89° C | 25% | 1008 hPa | 0 mm | - | - | - |
| 1777815436 | 28.89° C | 25% | 1007.9 hPa | 0 mm | - | - | - |
* Rain latest hour (hover to see other rain measurements)
** Current wind speed in m/s (hover to see current wind gust speed)